Meteor 2-19 Rocket - Orbit

View from above orbital plane
View from above orbital plane
View from above satellite
View from above satellite

Ground track
Ground track

The orbit data is extracted from the following two-line orbital elements,

1 20671U 90057B   13169.21100515  .00000033  00000-0  15766-4 0  6871
2 20671 082.5484 092.5891 0016606 098.3589 008.6379 13.84556253161030
Epoch (UTC): 18 June 2013 05:03:50
Eccentricity: 0.0016606
inclination: 82.5484°
perigee height: 935 km
apogee height: 960 km
right ascension of ascending node: 92.5891°
argument of perigee: 98.3589°
revolutions per day: 13.84556253
mean anomaly at epoch: 8.6379°
orbit number at epoch: 16103

The dashed part of the orbit path shows where the satellite is in the earth's shadow,  

Developed and maintained by Chris Peat, Heavens-Above GmbH. Please read the updated FAQ before sending e-mail. Imprint. DLR